Regional Weather Roundup
Issued by NWS

Home | Current Version | Previous Version | Graphics & Text | Print | Product List | Glossary On
Versions: 1 2 3 4 5 6 7 8 9 10 11 12 13 14 15 16 17 18 19 20 21 22 23 24 25 26 27 28 29 30 31 32 33 34 35 36 37 38 39 40 41 42 43 44 45 46 47 48 49 50
000
ASUS43 KIND 050809
RWRIN

WEATHER ROUNDUP FOR INDIANA
NATIONAL WEATHER SERVICE INDIANAPOLIS IN
400 AM EDT SAT SEP 05 2015

NOTE: "FAIR" INDICATES FEW OR NO CLOUDS BELOW 12,000 FEET WITH NO
SIGNIFICANT WEATHER AND/OR OBSTRUCTIONS TO VISIBILITY.

* - STATION DOES NOT REPORT WEATHER SUCH AS PRECIPITATION OR FOG.

+ - STATION NOT QUALITY CONTROLLED BY THE NATIONAL WEATHER SERVICE.
    USE DATA WITH CAUTION...ESPECIALLY DEWPOINT AND RELATIVE
    HUMIDITY OBSERVATIONS.

INZ001>003-010>013-019-020-050900-
NORTHWEST INDIANA

CITY           SKY/WX    TMP DP  RH WIND       PRES   REMARKS
GARY /AIRPORT/ CLEAR     68  65  92 CALM      30.05S FOG
KNOX *+        FAIR      64  64 100 CALM      30.07R
LA PORTE +     CLEAR    N/A N/A N/A CALM      30.08R HAZE
MICHIGAN CITY+ PTCLDY    68  68 100 CALM      30.06S
MONTICELLO +   CLEAR     66  66  99 E3        30.07R
RENSSELAER +   CLEAR     66  66 100 E3        30.07S
VALPARAISO     CLEAR     67  65  93 CALM      30.07R FOG

$$

LMZ046-743>745-050900-
SOUTHERN LAKE MICHIGAN

STATION/POSITION TIME  TEMP    WIND        PRES    WAVE
                       AIR SEA DIR/SP/G            HT
                 (UTC) (F)     (DEG/KT/KT) (MB)    (FT)
BURNS HARBOR     0700   71      CALM  /  2 1017.9F
MICHIGAN CITY    0700   70      80/  4/  5   N/A
5NW MICH CITY    0800   72 74  180/  8/  8   N/A     1

$$

INZ004-005-014>016-021>024-050900-
NORTH CENTRAL INDIANA

CITY           SKY/WX    TMP DP  RH WIND       PRES   REMARKS
GOSHEN         PTCLDY    67  64  90 S6        30.08S
LOGANSPORT +   CLEAR     63  59  88 E6        30.10R
PERU/GRISSOM   PTCLDY    67  65  95 SE5       30.09R
ROCHESTER +    CLEAR     70  68  94 SE7       30.10R
SOUTH BEND     PTCLDY    69  65  86 S5        30.08R
WARSAW +       PTCLDY    64  63  94 CALM      30.09S

$$

INZ006>009-017-018-025>027-050900-
NORTHEAST INDIANA

CITY           SKY/WX    TMP DP  RH WIND       PRES   REMARKS
ANGOLA *+      MOCLDY    66  55  68 CALM      30.10S
AUBURN +       PTCLDY    64  63  94 CALM      30.10S
FORT WAYNE     MOCLDY    66  64  93 SE5       30.10S
HUNTINGTON +   CLOUDY    68  63  84 CALM      30.09S

$$

INZ028-029-035-036-043>045-051>053-050900-
WEST CENTRAL INDIANA

CITY           SKY/WX    TMP DP  RH WIND       PRES   REMARKS
CRAWFORDSVL +  CLEAR     61  61 100 CALM      30.08S FOG
GREENCASTLE +  CLEAR     64  63  94 CALM      30.09R FOG
LAFAYETTE      CLEAR     65  62  90 CALM      30.07R
TERRE HAUTE    CLEAR     66  64  93 E5        30.07R

$$

INZ030>032-037>040-046>048-054>057-064-065-050900-
CENTRAL INDIANA

CITY           SKY/WX    TMP DP  RH WIND       PRES   REMARKS
FISHERS *+     CLEAR     64  64 100 CALM      30.09S
FRANKFORT +    CLEAR    N/A N/A N/A CALM      30.10R HAZE
GREENWOOD *+   PTCLDY    66  63  88 CALM      30.09S
INDIANAPOLIS   CLEAR     69  64  84 CALM      30.07S
-EAGLE CREEK   CLEAR     68  65  90 CALM      30.08R
KOKOMO *+      CLEAR     64 N/A N/A E5        30.10R
MARION +       MOCLDY    67  60  77 CALM      30.11S
MT COMFORT *+  CLEAR     61 N/A N/A E3        30.09S
SHELBYVILLE    FAIR      65  62  90 E5        30.08S
ZIONSVILLE +   CLEAR     64  61  90 CALM      30.10R FOG

$$

INZ033-034-041-042-049-050-058-059-050900-
EAST CENTRAL INDIANA

CITY           SKY/WX    TMP DP  RH WIND       PRES   REMARKS
MUNCIE         MOCLDY    63  62  97 N6        30.12R

$$

INZ060-061-067>069-081>083-085>088-050900-
SOUTHWEST INDIANA

CITY           SKY/WX    TMP DP  RH WIND       PRES   REMARKS
EVANSVILLE     CLEAR     74  67  78 NE6       30.06R
HUNTINGBURG *+ PTCLDY    72  63  73 SE7       30.06S
WASHINGTON +   CLEAR     70  65  85 SE3       30.05S

$$

INZ062-063-066-070>080-084-089>092-050900-
SOUTH CENTRAL AND SOUTHEAST INDIANA

CITY           SKY/WX    TMP DP  RH WIND       PRES   REMARKS
BLOOMINGTON    CLEAR     69  65  86 S3        30.08S
MADISON *+     PTCLDY    64  63  94 CALM      30.10S
NORTH VERNON + PTCLDY    68  68 100 CALM      30.09R FOG
SEYMOUR +      PTCLDY    66  64  94 CALM      30.08R

$$




USA.gov is the U.S. government's official web portal to all federal, state and local government web resources and services.